Regional Weather Roundup
Issued by NWS Midland/Odessa, TX

Home | Current Version | Previous Version | Text Only | Print | Product List | Glossary On
Versions: 1 2 3 4 5 6 7 8 9 10 11 12 13 14 15 16 17 18 19 20 21 22 23 24 25 26 27 28 29 30 31 32 33 34 35 36 37 38 39 40 41 42 43 44 45 46 47 48 49 50
000
ASUS44 KMAF 292110
RWRMAF
MIDLAND AREA WEATHER ROUNDUP
NATIONAL WEATHER SERVICE MIDLAND TX
400 PM CDT SUN MAR 29 2015

...IN SOUTHWEST TEXAS AND SOUTHEAST NEW MEXICO...

CITY           SKY/WX    TMP DP  RH WIND       PRES   REMARKS
ALPINE         SUNNY     85  19   9 E8G17     30.20F
ANDREWS        FAIR      88  31  13 N15       30.06F
ARTESIA        SUNNY     86  27  11 E13G20    30.08F
BIG SPRING     SUNNY     94  31  10 NW6G18    30.02S
CARLSBAD       SUNNY     90  21   8 NE12G18   30.06F
DRYDEN           N/A     91  43  18 SE10      29.99F
FORT STOCKTON  SUNNY     88  25  10 N6        30.06F
GUAD PASS      MOSUNNY   83  14   7 W18       30.21F
HOBBS          SUNNY     84  28  13 N12G23    30.12S
MARFA          SUNNY     84  23  10 SW13G20   30.18F
MIDLAND AIRPK  SUNNY     89  30  12 NW8       30.03F
MIDLAND INTL   SUNNY     90  35  14 N12       30.03F
ODESSA         SUNNY     89  27  10 N13G30    30.05F
PECOS          SUNNY     90  31  12 NW12      30.02F
PRESIDIO       FAIR      90  20   7 SW8       30.05F
SEMINOLE       SUNNY     85  31  14 E16G24    30.09S
SNYDER         SUNNY     87  38  17 N18G31    30.02R
WINK           SUNNY     92  24   8 N10G18    30.01F
$$
...OTHER STATIONS IN TEXAS...

CITY           SKY/WX    TMP DP  RH WIND       PRES   REMARKS
ABILENE        SUNNY     89  50  26 SW13      29.95F
AMARILLO       SUNNY     73  22  14 N24G35    30.18S
AUSTIN         SUNNY     82  57  42 S20G30    30.02F
BROWNSVILLE    MOSUNNY   79  64  60 SE21G33   30.10F
CORPUS CHRISTI SUNNY     78  65  63 SE31G39   30.08F
DALLAS FTW     MOSUNNY   82  59  45 S21       29.94F
DEL RIO        SUNNY     86  54  33 S13G21    29.98F
EL PASO        PTSUNNY   85   7   5 SW8       30.12F
HOUSTON INT    MOSUNNY   80  60  50 S15G28    30.10F
LUBBOCK        PTSUNNY   82  28  14 NE25G32   30.09S
SAN ANGELO     SUNNY     91  44  19 S14       29.96F
SAN ANTONIO    SUNNY     82  58  43 SE15G25   30.04F
WACO           SUNNY     82  56  40 S20G26    29.99F
WICHITA FALLS  NOT AVBL
$$
...OTHER LOCATIONS IN NEW MEXICO...

CITY           SKY/WX    TMP DP  RH WIND       PRES   REMARKS
ALAMAGORDO     PTSUNNY   82   9   6 NW10      30.13F
ALBUQUERQUE    PTSUNNY   76  20  12 SE7       30.18F
CANNON AFB     SUNNY     75  32  20 NE23G30   30.18F
CLOVIS         SUNNY     75  30  19 NE22G28   30.18F
HOLLOMAN AFB   PTSUNNY   84   7   5 NW3       30.11F
ROSWELL        SUNNY     87  22   9 NE12      30.09F
RUIDOSO        PTSUNNY   72   3   7 N12       30.28F
SANTA FE       MOSUNNY   73  12   9 SW6G17    30.21F
TRUTH OR CONSE CLOUDY    82   9   6 MISG      30.13F
TUCUMCARI      MOSUNNY   74  27  17 NE17G26   30.19F
$$



USA.gov is the U.S. government's official web portal to all federal, state and local government web resources and services.